Погода в Рыбинске

Хотите узнать прогноз погоды в Рыбинске? Тогда Вам сюда: Погода в Рыбинске

Поиск расширенной информации на нашем сайте:

Полезная информация:

Новости сайта



14.11.2019
Обновлён Долгосрочный прогноз погоды по России и другим странам хСССР на ноябрь-декабрь 2019 года.
Опубликованы прогностические карты: Предварительный прогноз на декабрь 2019 года, Предварительный прогноз на январь 2020 года, Предварительная схема синоптических процессов на декабрь 2019 г..

11.11.2019
Обновлены Долгосрочный прогноз погоды по России и другим странам хСССР на ноябрь-декабрь 2019 года и Предварительный прогноз на зиму 2019/2020 годов

04.11.2019
Опубликован Долгосрочный прогноз погоды по России и другим странам хСССР на ноябрь 2019 года
Сравнение прогнозируемой аномалии приземной температуры воздуха на ноябрь 2019 года по разным моделям
Предварительный прогноз на зиму 2019/2020 года




Погода в Рыбинске - сегодня

Время (UTC), дата Ветер
(°,м/с) 
Видим.   Явления Облачность Т
(°С)
Тd
(°С)
f(%) Тe
(°С)
Pmin
(гПа)
dP
(гПа)
Po
(мм)
O2
(г/м3)
Тmin Tmax R s Состояние
почвы
00 20.11.19 120 (ЮВ) 10 км    10/10 2000 м 
[Ac und]
+1.8 +0.3 90 1040  1.6  770  308           
03 20.11.19 120 (ЮВ) 10 км    10/10 2000 м 
[Ns]
+0.4 -0.7 92 -1  1041.2  1.1  771  310  +0.4    0.0    влажная 
06 20.11.19 130 (ЮВ) 4{11}  10 км    10/10 2000 м 
[Ns]
-0.6 -2 90 -3  1042.8  1.5  772  312  -0.6         
09 20.11.19 120 (ЮВ) 4{10}  10 км    10/10 2000 м 
[Ns]
-1.3 -2.9 89 -4  1044.5  1.7  773  313           
12 20.11.19 140 (ЮВ) 10 км    3/3 2000 м средняя 
[Ac trans]
-2 -4.7 82 -4  1045.2  0.7  774  315           
15 20.11.19 130 (ЮВ) 10 км    3/3 2000 м средняя 
[Ac trans]
-3.2 -7.3 73 -5  1046.2  0.9  774  317    +0.4       
18 20.11.19 140 (ЮВ) 10 км    ясно 
-5 -10 68 -6  1047.1  0.8  775  319           
21 20.11.19 150 (ЮВ) 10 км    ясно 
-6.2 -11 69 -8  1047.8  0.6  775  321           
00 21.11.19 150 (ЮВ) 10 км    ясно 
-7.5 -11.3 74 -9  1048.4  0.5  776  323           
03 21.11.19 140 (ЮВ) 10 км    ясно 
-8.7 -11.5 80 -8  1048.5  0.1  776  324  -8.7        замёрзшая 
06 21.11.19 160 (Ю) 10 км    ясно 
-9 -11.7 81 -9  1048.8  0.2  776  324  -9.4         
09 21.11.19 170 (Ю) 10 км    ясно 
-6 -11.1 67 -7  1048.5  776  321           
12 21.11.19 170 (Ю) 10 км    ясно 
-4.3 -12 55 -6  1047.4  -1.1  775  318           
15 21.11.19 160 (Ю) 10 км    ясно 
-6.6 -11.2 70 -8  1047.3  -0.2  775  321    -4.2       
18 21.11.19 180 (Ю) 10 км    ясно 
-7.3 -11.1 74 -7  1047.1  -0.2  775  322           
21 21.11.19 170 (Ю) 10 км    ясно 
-8.8 -10.9 85 -10  1047.2  -0.1  775  324           
00 22.11.19 180 (Ю) 10 км    ясно 
-9.4 -10.6 91 -11  1046.8  -0.5  774  324           
03 22.11.19 170 (Ю) 10 км    ясно 
-10 -11.2 91 -10  1046.3  -0.5  774  325  -10        замёрзшая 
06 22.11.19 170 (Ю) 10 км    4/4 2000 м средняя 
[As trans]
-10.1 -11.6 89 -10  1046.4  0.1  774  325  -11.1         
09 22.11.19 170 (Ю) 10 км    4/0 верхняя 
[Ci sp]
-6 -9.9 74 -6  1046  -0.1  774  320           
12 22.11.19 190 (Ю) 10 км    4/0 верхняя 
[Ci sp]
-4.4 -12.1 55 -4  1045  -0.9  773  318           
15 22.11.19 140 (ЮВ) 10 км    ясно 
-8.5 -11.6 78 -8  1044.6  -0.7  773  323    -3.9       
18 22.11.19 170 (Ю) 10 км    ясно 
-8.3 -11.8 76 -8  1044.6  773  322           
21 22.11.19 150 (ЮВ) 10 км    ясно 
-10.4 -12.4 85 -10  1044.5  -0.2  773  325           
00 23.11.19 140 (ЮВ) 10 км    ясно 
-11.1 -12.6 89 -11  1044  -0.5  772  326           
Время (UTC), дата Ветер
(°,м/с) 
Видим.   Явления Облачность Т
(°С)
Тd
(°С)
f(%) Тe
(°С)
Pmin
(гПа)
dP
(гПа)
Po
(мм)
O2
(г/м3)
Тmin Tmax R s Состояние
почвы

Для получения пояснительной информации подведите курсор к названию столбца.

ПОГОДА в Рыбинске - архив

Всё, что Вы хотите узнать о погоде в Рыбинске - удобно и подробно!

Выберите нужную дату (начиная с 1 января 2019* года) и нажмите кнопку "Найти".
Будут отображены архивные сводки погоды по пункту Рыбинск, начиная с указанной даты.


Отображать данные в формате CSV (для использования в таблицах Excel)


Внимание! Наш архив погоды предназначен исключительно для личного некоммерческого использования в познавательных целях. Если Вам необходимы официальные справки о состоянии погоды (для производственных, юридических, коммерческих и т.п. целей), обращайтесь в органы Росгидромета.

*Примечание: данная дата относится к архиву по метеостанциям СССР (Россия, СНГ, Балтия).
Архив по метеостанциям Зарубежной Европы и Азии (кроме Китая) хранится 10 дней, по другим регионам земного шара (Китай, Африка, Америка, Австралия, Океания) - 1 день.

Рыбинск - район местоположения метеостанции


Название, широта, долгота, высота метеостанции:
Рыбинск 58.1°ш. 38.7°д. 105 м над ур. моря [Российская Федерация]

Дополнительная информация

В oтличие oт бoльшинства пoгoдных сайтoв мы публикуем пoдрoбную метеoинфoрмацию в детальнoм прoфессиoнальнoм фoрмате.

Характеристики температуры и влажнoсти вoздуха измеряются на высoте 2 м в тени вдали oт зданий и деревьев.
Скoрoсть ветра измеряется на высoте 10 м (на урoвне рoста челoвека скoрoсть ветра ниже в 1.5-2 раза). Если метеoстанция нахoдится в гoрoде или в лесу, тo скoрoсть ветра занижена на 2-4 м/с пo сравнению с oткрытым местoм. Скoрoсть ветра над акватoриями крупных рек и oзёр, а также на вершинах хoлмoв на 2-5 м/с выше, чем в oбычных услoвиях.
Атмoсфернoе давление в разных тoчках местнoсти мoжет значительнo oтличаться oт давления на метеoстанции, в зависимoсти oт услoвий рельефа (при пoдъёме на 10 м давление пoнижается примернo на 1 мм рт.ст.).